W2JV-2 Weather Reports


Display with metric or nautical units.
time (UTC)temp
F
wind
direction
speed
MPH
gust
MPH
rain 1hr
in
rain 24hr
in
rain mn
in
humidity
%
barometer
mb
20260502194003 61 43 1.0 3.0 0.00 0.02 0.02 60 1010.2
20260502193503 61 326 4.0 7.0 0.00 0.02 0.02 58 1010.2
20260502193002 61 343 3.0 8.0 0.00 0.02 0.02 59 1010.3
20260502192502 61 329 2.0 3.0 0.00 0.02 0.02 61 1010.3
20260502192002 60 251 2.0 6.0 0.00 0.02 0.02 58 1010.4
20260502191004 60 7 2.0 3.0 0.00 0.02 0.02 55 1010.4
20260502190503 60 15 1.0 3.0 0.00 0.02 0.02 58 1010.5
20260502190004 60 273 1.0 5.0 0.00 0.02 0.02 59 1010.4
20260502185502 59 231 1.0 5.0 0.00 0.02 0.02 60 1010.5
20260502185003 58 352 0.0 2.0 0.00 0.02 0.02 62 1010.5
20260502184503 57 350 0.0 1.0 0.00 0.02 0.02 61 1010.6
20260502184003 57 305 0.0 0.0 0.00 0.02 0.02 61 1010.7
20260502183502 57 305 0.0 2.0 0.00 0.02 0.02 62 1010.8
20260502182503 57 277 0.0 0.0 0.00 0.02 0.02 62 1010.9
20260502181502 57 312 0.0 0.0 0.00 0.02 0.02 62 1010.8
20260502181002 58 348 0.0 0.0 0.00 0.02 0.02 61 1010.7
20260502170503 59 321 0.0 2.0 0.00 0.02 0.02 59 1011.1
20260502163503 58 349 1.0 3.0 0.00 0.02 0.02 63 1011.1
20260502163003 58 253 1.0 2.0 0.00 0.02 0.02 63 1011.1
20260502162504 58 216 1.0 3.0 0.00 0.02 0.02 64 1011.1
20260502162002 58 265 1.0 3.0 0.00 0.02 0.02 64 1011.2
20260502161003 58 297 1.0 2.0 0.00 0.02 0.02 64 1011.4
20260502160503 57 287 1.0 2.0 0.00 0.02 0.02 64 1011.4
20260502152002 55 191 0.0 0.0 0.00 0.02 0.02 67 1011.6
20260502151003 55 194 0.0 0.0 0.00 0.02 0.02 67 1011.7
20260502130502 53 59 1.0 2.0 0.00 0.02 0.02 77 1011.9
20260502123503 53 335 0.0 0.0 0.00 0.02 0.02 80 1011.8
20260502123003 53 335 0.0 0.0 0.00 0.02 0.02 81 1011.8
20260502122502 53 335 0.0 0.0 0.00 0.02 0.02 81 1011.9
20260502122002 53 349 0.0 0.0 0.00 0.02 0.02 81 1011.9
20260502121503 53 227 0.0 0.0 0.00 0.02 0.02 81 1012.0
20260502121003 53 227 0.0 0.0 0.00 0.02 0.02 81 1012.0
20260502120504 53 236 0.0 0.0 0.00 0.02 0.02 81 1012.1
20260502115504 53 236 0.0 0.0 0.02 0.02 0.02 81 1011.9
20260502115005 52 236 0.0 0.0 0.02 0.02 0.02 81 1011.7
20260502114502 52 231 0.0 0.0 0.02 0.02 0.02 80 1011.5
20260502114002 52 158 0.0 0.0 0.02 0.02 0.02 79 1011.3
20260502113503 52 148 0.0 0.0 0.02 0.02 0.02 78 1011.5
20260502113002 52 63 0.0 0.0 0.02 0.02 0.02 77 1011.3
20260502112503 52 88 0.0 0.0 0.02 0.02 0.02 76 1011.2
20260502112003 52 165 0.0 0.0 0.02 0.02 0.02 76 1011.3
20260502111502 52 146 0.0 0.0 0.02 0.02 0.02 75 1011.2
20260502110502 52 239 0.0 0.0 0.02 0.02 0.02 74 1011.4
20260502110002 52 239 0.0 0.0 0.00 0.00 0.00 73 1011.7
20260502105502 52 239 0.0 1.0 0.00 0.00 0.00 73 1012.1
20260502105003 52 239 0.0 1.0 0.00 0.00 0.00 73 1012.0
20260502104503 52 239 0.0 0.0 0.00 0.00 0.00 73 1011.6
20260502104003 52 239 0.0 1.0 0.00 0.00 0.00 73 1011.6
20260502103003 52 239 0.0 0.0 0.00 0.00 0.00 73 1011.6
20260502102503 51 239 0.0 2.0 0.00 0.00 0.00 73 1011.7
20260502102003 51 219 0.0 2.0 0.00 0.00 0.00 73 1011.7
20260502101502 51 235 1.0 2.0 0.00 0.00 0.00 73 1011.5
20260502101003 51 211 0.0 2.0 0.00 0.00 0.00 73 1011.4
20260502100502 51 235 1.0 2.0 0.00 0.00 0.00 73 1011.4
20260502091503 51 211 1.0 2.0 0.00 0.00 0.00 74 1011.2
20260502091002 51 211 0.0 2.0 0.00 0.00 0.00 74 1011.0
20260502090503 51 208 0.0 2.0 0.00 0.00 0.00 74 1011.0
20260502071503 51 190 0.0 1.0 0.00 0.00 0.00 73 1011.2
20260502071002 51 153 0.0 2.0 0.00 0.00 0.00 73 1011.2
20260502070502 51 234 0.0 2.0 0.00 0.00 0.00 72 1011.3
20260502070004 51 219 0.0 2.0 0.00 0.00 0.00 72 1011.3
20260502065003 51 234 0.0 2.0 0.00 0.00 0.00 72 1011.5
20260502064503 51 217 0.0 2.0 0.00 0.00 0.00 71 1011.4
20260502063503 51 193 0.0 2.0 0.00 0.00 0.00 71 1011.4
20260502063003 52 172 0.0 3.0 0.00 0.00 0.00 71 1011.5
20260502062502 52 183 0.0 3.0 0.00 0.00 0.00 71 1011.5
20260502062003 52 187 0.0 2.0 0.00 0.00 0.00 70 1011.6
20260502061502 52 239 1.0 3.0 0.00 0.00 0.00 70 1011.8
20260502061002 52 237 1.0 3.0 0.00 0.00 0.00 70 1012.0
20260502060003 52 218 0.0 3.0 0.00 0.00 0.00 70 1011.5
20260502055503 52 209 0.0 2.0 0.00 0.00 0.00 70 1011.5
20260502055003 52 212 1.0 3.0 0.00 0.00 0.00 69 1011.5
20260502054503 52 197 0.0 3.0 0.00 0.00 0.00 69 1011.6
20260502054004 52 172 0.0 2.0 0.00 0.00 0.00 69 1011.5
20260502053502 52 213 0.0 2.0 0.00 0.00 0.00 69 1011.4
20260502053003 52 202 0.0 3.0 0.00 0.00 0.00 69 1011.4
20260502052503 52 181 0.0 2.0 0.00 0.00 0.00 69 1011.4
20260502051503 52 188 0.0 2.0 0.00 0.00 0.00 68 1011.5
20260502051003 52 197 0.0 2.0 0.00 0.00 0.00 68 1011.5
20260502050503 52 163 0.0 2.0 0.00 0.00 0.00 68 1011.5
20260502050003 52 212 0.0 3.0 0.00 0.00 0.00 68 1011.6
20260502045504 52 194 0.0 2.0 0.00 0.00 0.00 68 1011.6
20260502045003 52 221 1.0 3.0 0.00 0.00 0.00 68 1011.7
20260502044504 52 187 1.0 2.0 0.00 0.00 0.00 68 1011.7
20260502043503 52 198 0.0 2.0 0.00 0.00 0.00 68 1011.8
20260502043002 52 236 0.0 3.0 0.00 0.00 0.00 68 1011.9
20260502042502 52 225 1.0 3.0 0.00 0.00 0.00 68 1011.9
20260502042004 52 180 0.0 2.0 0.00 0.00 0.00 68 1011.9
20260502041503 51 191 1.0 3.0 0.00 0.00 0.00 68 1012.0
20260502041004 51 189 1.0 3.0 0.00 0.00 0.00 69 1011.9
20260502040503 51 173 1.0 3.0 0.00 0.00 0.00 69 1011.7
20260502035503 51 181 0.0 3.0 0.00 0.00 0.00 69 1011.6
20260502035003 51 201 0.0 2.0 0.00 0.00 0.00 69 1011.6
20260502034503 51 216 1.0 3.0 0.00 0.00 0.00 69 1011.7
20260502034003 51 227 0.0 3.0 0.00 0.00 0.00 69 1011.8
20260502033503 51 218 0.0 3.0 0.00 0.00 0.00 69 1011.7
20260502033003 51 204 1.0 3.0 0.00 0.00 0.00 69 1011.8
20260502032503 51 186 0.0 3.0 0.00 0.00 0.00 69 1011.9
20260502032003 51 187 0.0 3.0 0.00 0.00 0.00 69 1011.9
20260502031503 51 185 1.0 3.0 0.00 0.00 0.00 69 1012.0
20260502030503 51 187 0.0 2.0 0.00 0.00 0.00 68 1012.1
20260502030003 51 187 0.0 2.0 0.00 0.00 0.00 68 1012.1
20260502025503 51 186 0.0 3.0 0.00 0.00 0.00 68 1012.2
20260502025004 51 183 0.0 2.0 0.00 0.00 0.00 68 1012.1
20260502024502 51 186 0.0 3.0 0.00 0.00 0.00 68 1012.1
20260502022503 51 186 1.0 2.0 0.00 0.00 0.00 66 1012.1
20260502022002 51 187 1.0 3.0 0.00 0.00 0.00 66 1012.1
20260502021003 52 191 1.0 3.0 0.00 0.00 0.00 65 1012.0
20260502020502 52 185 1.0 2.0 0.00 0.00 0.00 65 1012.0
20260502020002 52 185 1.0 3.0 0.00 0.00 0.00 65 1012.0
20260502015503 52 183 1.0 3.0 0.00 0.00 0.00 64 1012.0
20260502014502 52 187 1.0 3.0 0.00 0.00 0.00 64 1011.9
20260502013502 52 193 1.0 3.0 0.00 0.00 0.00 64 1011.9
20260502013003 52 190 1.0 3.0 0.00 0.00 0.00 64 1011.8
20260502012504 52 192 1.0 3.0 0.00 0.00 0.00 64 1011.8
20260502012004 52 189 1.0 3.0 0.00 0.00 0.00 64 1011.7
20260502011003 52 187 1.0 3.0 0.00 0.00 0.00 64 1011.6
20260502010504 53 192 1.0 3.0 0.00 0.00 0.00 64 1011.6
20260502010004 53 189 1.0 3.0 0.00 0.00 0.00 64 1011.6
20260502005503 53 187 1.0 3.0 0.00 0.00 0.00 64 1011.7
20260502005003 53 189 1.0 3.0 0.00 0.00 0.00 64 1011.6
20260502004503 53 189 1.0 3.0 0.00 0.00 0.00 64 1011.7
20260502004003 53 186 1.0 3.0 0.00 0.00 0.00 63 1011.7
20260502003503 53 187 1.0 2.0 0.00 0.00 0.00 63 1011.7
20260502002503 53 186 1.0 2.0 0.00 0.00 0.00 62 1011.5
20260502001502 53 187 1.0 3.0 0.00 0.00 0.00 61 1011.3
20260502001003 53 185 1.0 3.0 0.00 0.00 0.00 61 1011.3
20260502000502 54 189 1.0 3.0 0.00 0.00 0.00 60 1011.2
20260501235002 54 186 1.0 5.0 0.00 0.00 0.00 59 1011.1
20260501234503 54 187 1.0 3.0 0.00 0.00 0.00 59 1011.1
20260501234003 54 189 1.0 3.0 0.00 0.00 0.00 58 1011.1
20260501233503 55 188 1.0 3.0 0.00 0.00 0.00 58 1011.0
20260501233003 55 190 1.0 3.0 0.00 0.00 0.00 57 1010.9
20260501232503 55 186 1.0 6.0 0.00 0.00 0.00 57 1010.8
20260501232003 55 188 2.0 6.0 0.00 0.00 0.00 56 1010.8
20260501231502 56 188 1.0 5.0 0.00 0.00 0.00 55 1010.8
20260501231003 56 185 2.0 6.0 0.00 0.00 0.00 55 1010.8
20260501230503 56 187 1.0 3.0 0.00 0.00 0.00 55 1010.7
20260501230003 56 186 1.0 8.0 0.00 0.00 0.00 55 1010.7
20260501225504 57 188 1.0 8.0 0.00 0.00 0.00 54 1010.7
20260501225003 57 189 2.0 6.0 0.00 0.00 0.00 53 1010.7
20260501224503 57 187 2.0 8.0 0.00 0.00 0.00 53 1010.7
20260501224003 57 190 2.0 7.0 0.00 0.00 0.00 52 1010.7
20260501223503 58 188 2.0 5.0 0.00 0.00 0.00 51 1010.7
20260501222503 58 190 2.0 6.0 0.00 0.00 0.00 51 1010.7
20260501222003 58 188 3.0 7.0 0.00 0.00 0.00 49 1010.7
20260501221504 59 188 3.0 9.0 0.00 0.00 0.00 50 1010.7
20260501221003 59 186 3.0 6.0 0.00 0.00 0.00 48 1010.6
20260501220503 59 187 2.0 8.0 0.00 0.00 0.00 47 1010.7
20260501220003 60 187 3.0 8.0 0.00 0.00 0.00 46 1010.6
20260501215504 60 188 5.0 10.0 0.00 0.00 0.00 44 1010.6
20260501215003 61 187 3.0 10.0 0.00 0.00 0.00 44 1010.5
20260501214503 61 187 3.0 8.0 0.00 0.00 0.00 43 1010.4
20260501214003 62 186 4.0 9.0 0.00 0.00 0.00 43 1010.4
20260501213503 62 187 5.0 8.0 0.00 0.00 0.00 42 1010.4
20260501213003 63 187 7.0 12.0 0.00 0.00 0.00 41 1010.4
20260501212502 63 188 5.0 9.0 0.00 0.00 0.00 42 1010.3
20260501211503 64 246 6.0 10.0 0.00 0.00 0.00 39 1010.2
20260501211004 64 210 6.0 12.0 0.00 0.00 0.00 39 1010.2
20260501210502 65 262 5.0 9.0 0.00 0.00 0.00 38 1010.0
20260501210002 65 232 3.0 7.0 0.00 0.00 0.00 38 1010.1
20260501205503 65 189 3.0 7.0 0.00 0.00 0.00 33 1010.0
20260501205003 65 213 1.0 3.0 0.00 0.00 0.00 34 1010.0
20260501203003 66 207 0.0 3.0 0.00 0.00 0.00 32 1010.0
20260501202003 66 221 2.0 5.0 0.00 0.00 0.00 34 1010.1
20260501201503 66 287 1.0 3.0 0.00 0.00 0.00 32 1010.1
20260501200504 66 251 2.0 6.0 0.00 0.00 0.00 33 1010.1
20260501200004 66 271 2.0 5.0 0.00 0.00 0.00 32 1010.1
20260501195504 66 200 2.0 3.0 0.00 0.00 0.00 33 1010.2
20260501195003 66 71 1.0 5.0 0.00 0.00 0.00 32 1010.2